Location: Highland Meadows Observing Site
(48.4428°N, 114.5461°W)
Time: 19:31:33
(UTC-06:00)

Gurwin Techsat 1B - Visible Passes

Search period start: 16 September 2014 00:00
Search period end: 26 September 2014 00:00
Orbit: 812 x 815 km, 98.5° (Epoch: 15 September)

Date Brightness Start Highest point End Pass type
(mag) Time Alt. Az. Time Alt. Az. Time Alt. Az.
16 Sep 9.9 03:51:04 10° NNE 03:55:50 32° E 03:56:58 29° ESE visible
16 Sep 9.1 05:30:56 10° N 05:35:54 41° WNW 05:38:11 27° WSW visible
17 Sep 10.5 03:28:56 10° NE 03:32:57 21° E 03:33:56 20° ESE visible
17 Sep 8.6 05:08:06 10° N 05:13:21 62° WNW 05:15:09 40° SW visible
18 Sep 11.0 03:07:19 10° NE 03:10:00 14° E 03:10:54 13° E visible
18 Sep 8.5 04:45:23 10° NNE 04:50:44 89° ESE 04:52:07 52° SSW visible
18 Sep 10.2 06:26:42 10° NNW 06:30:01 17° NW 06:33:19 10° W visible
19 Sep 9.0 04:22:47 10° NNE 04:28:03 59° E 04:29:05 50° SE visible
19 Sep 9.8 06:03:27 10° N 06:07:39 24° WNW 06:10:18 17° W visible
20 Sep 9.6 04:00:19 10° NNE 04:05:17 39° E 04:06:03 37° ESE visible
20 Sep 9.3 05:40:26 10° N 05:45:13 35° WNW 05:47:16 26° WSW visible
21 Sep 10.3 03:38:03 10° NE 03:42:27 26° E 03:43:01 25° ESE visible
21 Sep 8.8 05:17:33 10° N 05:22:42 52° WNW 05:24:13 39° WSW visible
22 Sep 10.8 03:16:09 10° NE 03:19:32 17° E 03:19:59 17° E visible
22 Sep 8.5 04:54:47 10° NNE 05:00:07 78° WNW 05:01:11 57° SW visible
22 Sep 10.4 06:36:28 10° NNW 06:39:15 15° NW 06:42:02 10° W visible
23 Sep 11.3 02:55:35 10° ENE 02:56:31 10° E 02:56:56 10° E visible
23 Sep 8.7 04:32:08 10° NNE 04:37:28 71° ESE 04:38:09 63° SSE visible
23 Sep 10.0 06:13:03 10° NNW 06:16:55 21° WNW 06:19:22 15° W visible
24 Sep 9.3 04:09:36 10° NNE 04:14:44 46° E 04:15:07 46° ESE visible
24 Sep 9.5 05:49:57 10° N 05:54:31 30° WNW 05:56:19 24° W visible
25 Sep 10.1 03:47:14 10° NNE 03:51:55 31° E 03:52:04 30° E visible
25 Sep 9.0 05:27:01 10° N 05:32:02 43° WNW 05:33:17 37° WSW visible
